Regional Weather Roundup
Issued by NWS

Home | Current Version | Previous Version | Graphics & Text | Print | Product List | Glossary On
Versions: 1 2 3 4 5 6 7 8 9 10 11 12 13 14 15 16 17 18 19 20 21 22 23 24 25 26 27 28 29 30 31 32 33 34 35 36 37 38 39 40 41 42 43 44 45 46 47 48 49 50
000
ASUS43 KMKX 152011
RWRWI

WISCONSIN REGIONAL WEATHER ROUNDUP
NATIONAL WEATHER SERVICE MILWAUKEE/SULLIVAN WI
200 PM CST FRI DEC 15 2017

NOTE: "FAIR" INDICATES FEW OR NO CLOUDS BELOW 12,000 FEET WITH NO
SIGNIFICANT WEATHER AND/OR OBSTRUCTIONS TO VISIBILITY.

WIZ001-002-006>008-014>016-023>028-152100-
NORTHWEST WISCONSIN

CITY           SKY/WX    TMP DP  RH WIND       PRES   REMARKS
SUPERIOR ARPT  CLOUDY    16   5  62 CALM      29.82F
ASHLAND        CLOUDY    15   6  67 NW7       29.81F WCI   5
HAYWARD        MOSUNNY   17   6  62 VRB5      29.78F WCI  10
SIREN          CLOUDY    19   9  65 W6        29.81F WCI  11
CUMBERLAND     CLOUDY    18   9  68 CALM      29.79F
RICE LAKE      CLOUDY    18  10  71 CALM      29.82F
CHETEK         CLOUDY    19  10  68 CALM      29.81F
LADYSMITH      SUNNY     16   6  63 W5        29.80F WCI   9
EAU CLAIRE     CLOUDY    21  13  71 W8        29.81F WCI  11
MENOMONIE      CLOUDY    24  16  71 NW6       29.82F WCI  17
NEW RICHMOND   PTSUNNY   23  12  63 CALM      29.81F
OSCEOLA        CLOUDY    20  12  70 CALM      29.84F
$$

WIZ003>005-009-010-017-018-152100-
NORTH CENTRAL WISCONSIN

CITY           SKY/WX    TMP DP  RH WIND       PRES   REMARKS
MANITOWISH WTR CLOUDY    12   3  67 W8        29.74S WCI   0
ARBOR VITAE    CLOUDY    17   8  70 NW9       29.74S WCI   5
WOODRUFF       CLOUDY    17   8  70 NW9       29.74S WCI   5
RHINELANDER    LGT SNOW  14   7  73 NW7       29.74F WCI   4
EAGLE RIVER    CLOUDY    13   4  67 W10       29.72F WCI   0
LAND O LAKES   PTSUNNY   15   5  64 NW8       29.73R WCI   4
PHILLIPS       CLOUDY    15   6  68 W3        29.76S
TOMAHAWK       CLOUDY    15   7  71 W6        29.77S WCI   6
MEDFORD        MOSUNNY   15   7  68 W7        29.77S WCI   6
MERRILL        FLURRIES  18   8  66 W8        29.79S WCI   7
$$

WIZ029-030-035-036-043>047-152100-
CENTRAL WISCONSIN

CITY           SKY/WX    TMP DP  RH WIND       PRES   REMARKS
WAUSAU         PTSUNNY   15   7  70 NW8       29.78F WCI   4
MOSINEE        MOSUNNY   18   9  68 W9        29.79F WCI   6
MARSHFIELD     PTSUNNY   18  10  71 NW8       29.78F WCI   8
STEVENS POINT  SUNNY     18   8  63 W7        29.81F WCI   9
WAUPACA        MOSUNNY   24  10  55 NW7       29.82F WCI  16
WAUTOMA        CLOUDY    24  14  65 W9        29.82F WCI  14
WISC RAPIDS    CLOUDY    22  12  65 NW10      29.82F WCI  11
CAMP DOUGLAS   PTSUNNY   28  19  69 W8        29.80F WCI  20
$$

WIZ011>013-019>022-031-037>040-048>050-152100-
NORTHEAST WISCONSIN

CITY           SKY/WX    TMP DP  RH WIND       PRES   REMARKS
ANTIGO         FLURRIES  15   8  72 NW12      29.75F WCI   2
SHAWANO        CLOUDY    21  10  61 W5        29.80F WCI  15
OCONTO         SUNNY     20   8  59 W13G20    29.80S WCI   7
STURGEON BAY   FLURRIES  22  11  62 W15       29.78S WCI   9
GREEN BAY      CLOUDY    20   9  62 W17       29.82S WCI   5
MANITOWOC      FLURRIES  23  11  60 W16G23    29.82S WCI  10
APPLETON       PTSUNNY   21   7  53 W16       29.80F WCI   7
CLINTONVILLE   MOSUNNY   19   7  58 W10G16    29.81F WCI   8
OSHKOSH        MOSUNNY   23  11  60 W8G17     29.82S WCI  14
$$

WIZ032>034-041-042-053>061-152100-
SOUTHWEST WISCONSIN

CITY           SKY/WX    TMP DP  RH WIND       PRES   REMARKS
LA CROSSE      CLOUDY    32  25  75 SW6       29.83F WCI  26
SPARTA         CLOUDY    29  23  76 W7        29.82F WCI  22
VIROQUA        CLOUDY    29  27  93 W8        29.81F WCI  21
BOSCOBEL       CLOUDY    32  25  75 SW8       29.86F WCI  25
PRAIRIE DU CHI FLURRIES  33  26  75 SW7       29.85F WCI  27
PLATTEVILLE    CLOUDY    31  28  88 W9        29.85F WCI  23
$$

WIZ056-057-062-063-064-067-068-152100-
SOUTH CENTRAL WISCONSIN

CITY           SKY/WX    TMP DP  RH WIND       PRES   REMARKS
REEDSBURG      CLOUDY    30  21  69 SW9       29.82F WCI  21
BARABOO/DELLS  CLOUDY    29  19  67 W10G23    29.81F WCI  20
LONE ROCK      CLOUDY    31  25  78 W7        29.85F WCI  24
MINERAL POINT  FLURRIES  32  30  93 W10       29.83F WCI  24
MADISON        PTSUNNY   30  20  66 W8        29.84F WCI  22
MIDDLETON      CLOUDY    32  23  70 W12       29.84S WCI  23
WATERTOWN      CLOUDY    28  19  69 W9G16     29.83F WCI  19
MONROE         CLOUDY    30  25  80 W16G22    29.84F WCI  19
JANESVILLE     CLOUDY    32  21  64 W12       29.86F WCI  23
$$

WIZ051-052-058>065-066-070>072-152100-
SOUTHEAST WISCONSIN

CITY           SKY/WX    TMP DP  RH WIND       PRES   REMARKS
MILWAUKEE      CLOUDY    30  17  58 W13G23    29.85S WCI  20
WAUKESHA       CLOUDY    25  16  68 W12G23    29.84F WCI  14
MILWAUKEE/TIMM CLOUDY    27  14  59 W13       29.85F WCI  16
RACINE         CLOUDY    30  17  58 W15G24    29.86F WCI  19
BURLINGTON     PTSUNNY   30  21  70 W10G18    29.85F WCI  21
KENOSHA        CLOUDY    31  18  58 W16G24    29.85S WCI  20
FOND DU LAC    MIX PCPN  25  11  55 NW10      29.82F WCI  15
SHEBOYGAN      MOSUNNY   23  12  62 W16       29.82S WCI  10
WEST BEND      CLOUDY    25  18  74 W12G20    29.82S WCI  14
JUNEAU         CLOUDY    24  16  69 CALM      29.84S
$$

LSZ147-162-152100-
LAKE SUPERIOR

STATION/POSITION TIME  TEMP    WIND        PRES    WAVE
                       AIR SEA DIR/SP/G            HT/PER
                 (UTC) (F)     (DEG/KT/KT) (MB)    (FT/S)
DEVILS ISLAND    2000   16     250/  8/ 10 1010.6F
SAXON HARBOR     1930   17                 1009.5F
$$

LMZ867-665-643>646-152100-
LAKE MICHIGAN

STATION/POSITION TIME  TEMP    WIND        PRES    WAVE
                       AIR SEA DIR/SP/G            HT/PER
                 (UTC) (F)     (DEG/KT/KT) (MB)    (FT/S)
NORTHPORT PIER   1940   24     280/  7/ 15 1007.5S
KEWAUNEE LAKESHO 1942   21     290/ 10/ 14 1008.7S
SHEBOYGAN LAKESH 2000   24     280/ 12/ 14 1010.8F
PORT WASHINGTON  1940   25     290/  7/ 15 1011.5S
MILWAUKEE LAKESH 1950   27     290/  9/ 11   N/A
KENOSHA   LAKESH 2000   30     260/ 16/ 22 1011.2
$$

TC  - TEMPERATURE IN CELSIUS
VSB - VISIBILITY IN STATUTE MILES
WCI - WIND CHILL INDEX
HX  - HEAT INDEX





USA.gov is the U.S. government's official web portal to all federal, state and local government web resources and services.